Regional Weather Roundup
Issued by NWS Grand Forks, ND

Home | Current Version | Previous Version | Graphics & Text | Print | Product List | Glossary Off
Versions: 1 2 3 4 5 6 7 8 9 10 11 12 13 14 15 16 17 18 19 20 21 22 23 24 25 26 27 28 29 30 31 32 33 34 35 36 37 38 39 40 41 42 43 44 45 46 47 48 49 50

000
ASUS43 KFGF 280431
RWRFGF
PRAIRIE TO PINES  WEATHER ROUNDUP
NATIONAL WEATHER SERVICE EASTERN NORTH DAKOTA/GRAND FORKS ND
1000 PM CST MON FEB 27 2017

 **SATELLITE DATA USED TO AUGMENT SKY COVER AT AUTOMATED STATIONS**
 *****  WEATHER ACROSS EASTERN NORTH DAKOTA  *****

CITY           SKY/WX    TMP DP  RH WIND       PRES   REMARKS
GRAND FORKS    CLOUDY    17  10  74 N18       29.93S WCI   1
GRAND FRKS AFB CLOUDY    14  10  85 N15       29.94R WCI  -1
DEVILS LAKE    FLURRIES  12   9  87 E10       29.90S WCI  -1
FARGO          FAIR      26  22  84 N17       29.86R WCI  13
WAHPETON ARPT  CLOUDY    30  25  80 N12       29.82R WCI  21
$$

 ***** WEATHER ACROSS CENTRAL AND WESTERN NORTH DAKOTA  *****

CITY           SKY/WX    TMP DP  RH WIND       PRES   REMARKS
BISMARCK       CLOUDY    20  16  84 N7        29.86R WCI  11
MINOT          FAIR       3  -1  83 NW6       29.90R WCI  -8
JAMESTOWN      CLOUDY    22  18  85 NE12      29.84S WCI  10
MINOT AFB      CLEAR     -2  -6  83 NW3       29.89S
GARRISON         N/A     -2  -5  87 N7        29.86R WCI -15
WILLISTON      FAIR       7   3  84 NE5       29.84F WCI  -2
DICKINSON      CLOUDY    14  11  87 E7        29.76F WCI   4
HETTINGER      CLOUDY    19  14  81 E12       29.77S WCI   7
$$

 *****  OTHER AIRPORT OBSERVATIONS IN OUR AREA  *****

CITY           SKY/WX    TMP DP  RH WIND       PRES   REMARKS
WALHALLA       NOT AVBL
GRAFTON AIRPOR CLOUDY    14  10  85 N12       29.98R WCI   0
VALLEY CITY AR CLOUDY    19  19 100 NE9       29.87F WCI   9
CANDO          NOT AVBL
CAVALIER APRT    N/A     14  10  85 N9        29.97S WCI   2
GWINNER        FAIR      28  25  86 N18       29.84S WCI  16
SHEYENNE NWR     N/A     25  19  79 NE13      29.95S WCI  14
ROLLA          FAIR       3   0  85 N8        29.90F WCI -10
 ***** THE ABOVE OBSERVATIONS ARE NON NWS ARE NOT QUALITY
       CONTROLLED AND MAY MIS-REPORT RAIN FOR SNOW...
$$

  *****  WEATHER ACROSS NORTHERN MINNESOTA  *****

CITY           SKY/WX    TMP DP  RH WIND       PRES   REMARKS
FLAG ISLAND    LGT SNOW  16  12  86 N12       29.95R WCI   3
WARROAD        LGT SNOW  18  14  86 N9        29.94R WCI   6
ROSEAU         LGT SNOW  18  12  79 N7        29.93S WCI   8
HALLOCK        FAIR      16  10  79 N10       29.96S WCI   3
THF RVR FALLS  MOCLDY    20  16  84 N15       29.89S WCI   6
BAUDETTE       CLOUDY    21  16  81 N6        29.90R WCI  13
WASKISH        CLOUDY    25  16  68 NE7       29.88R WCI  17
CROOKSTON      CLOUDY    21  18  86 N13       29.91S WCI   9
STEPHEN NDAWN    N/A     16  12  86 VRB12       N/A  WCI   3
GREENBUSH NDAW   N/A     16  12  86 N9          N/A  WCI   4
$$
  *****  WEATHER ACROSS CENTRAL AND WEST MINNESOTA  *****

CITY           SKY/WX    TMP DP  RH WIND       PRES   REMARKS
FOSSTON        FAIR      21  16  79 N9        29.86S WCI  11
BEMIDJI        CLOUDY    26  15  65 N7        29.83F WCI  18
PARK RAPIDS    CLOUDY    31  22  69 N7        29.79S WCI  24
ELBOW LAKE     FAIR      32  29  89 SE5       29.79R
WADENA         CLOUDY    30  27  86 S7        29.78F WCI  23
DETROIT LAKES  FAIR      30  27  86 NW3       29.81S
MOORHEAD       FAIR      27  19  74 N15       29.86R WCI  15
FERGUS FALLS   CLOUDY    30  27  86 NE5       29.84R
MORRIS MN      FAIR      32  28  86 SE8       29.78F WCI  25
STAPLES        CLOUDY    32  25  74 SE3       29.80S
$$
  *****  WEATHER ELSEWHERE ACROSS MINNESOTA  *****

CITY           SKY/WX    TMP DP  RH WIND       PRES   REMARKS
DULUTH         CLOUDY    27  24  89 E6        29.86S WCI  20
INTRNTL FALLS  FLURRIES  24  17  74 NE5       29.89S WCI  18
ELY            MOCLDY    27  21  80 SE6       29.87S WCI  20
CLOQUET        CLOUDY    27  25  93 CALM      29.87R
WHEATON        MOCLDY    32  28  86 NW9       29.83R WCI  24
BRAINERD       CLOUDY    36  24  62 S14       29.82R
HIBBING        CLOUDY    27  23  85 SE8       29.85S WCI  19
ALEXANDRIA     MOCLDY    34  27  75 S10       29.79F
SAINT CLOUD    CLOUDY    35  25  66 S7        29.84R
MINNEAPOLIS    CLOUDY    36  26  67 SE12      29.86F
$$

  *****  WEATHER ACROSS SOUTH DAKOTA  *****

CITY           SKY/WX    TMP DP  RH WIND       PRES   REMARKS
SIOUX FALLS    MOCLDY    37  32  82 E5        29.73F
BROOKINGS      CLOUDY    36  29  75 SE8       29.73F
WATERTOWN      FAIR      33  26  75 S6        29.74S
HURON          FAIR      32  27  81 NW6       29.75R
SISSETON         N/A     32  29  88 N14       29.81R WCI  22
ABERDEEN       LGT SNOW  30  26  85 NE13      29.79S FOG     WCI  20
MITCHELL       FAIR      32  28  85 E5        29.72R
PIERRE         CLOUDY    35  30  82 NE8       29.71S
MOBRIDGE       CLOUDY    28  22  78 NE7       29.77R WCI  21
RAPID CITY     FAIR      27  19  72 N9        29.68R WCI  18
$$

  *****  SOME WEATHER IN NEARBY STATES *****

CITY           SKY/WX    TMP DP  RH WIND       PRES   REMARKS
GLASGOW MT     CLOUDY    13   8  81 E10       29.76S WCI   0
GREAT FALLS MT FAIR      18  12  77 S10       29.57S WCI   6
CHEYENNE WY    CLOUDY    27  17  66 NW15      29.66R WCI  15
SCOTTSBLUFF NE FAIR      26  23  88 NW5       29.69R WCI  20
OMAHA NE       CLOUDY    44  30  57 SE3       29.73S
DES MOINES IA  MOCLDY    50  30  46 E10       29.79F
DAVENPORT IA   CLOUDY    49  36  61 SE13      29.91F
CHICAGO IL     CLOUDY    47  36  65 SE12      30.03F
EAU CLAIRE WI  MOCLDY    37  27  67 S7        29.91F
LA CROSSE WI   MOCLDY    41  32  70 E6        29.93S
$$

  *****  SOME NATIONAL WEATHER *****

CITY           SKY/WX    TMP DP  RH WIND       PRES   REMARKS
LA GUARDIA NY  MOCLDY    50  30  46 S7        30.39F
RALEIGH NC     CLOUDY    58  42  55 SE8       30.35F
ATLANTA GA     MOCLDY    49  47  93 E8        30.28R
NEW ORLEANS LA CLOUDY    71  69  93 SE14      30.13S
OKLAHOMA CITY  FAIR      60  59  96 S15       29.82R FOG
ALBUQUERQUE NM MOCLDY    49  31  49 W8        29.90R
SALT LAKE CITY MOCLDY    31  23  72 S8        29.82R WCI  23
LOS ANGELES CA MOCLDY    54  49  83 W13       29.85R
BOISE ID       FAIR      30  24  78 SE9       29.78S WCI  22
SEATTLE WA     CLOUDY    34  33  96 SE6       29.75R
$$

*** WEATHER ACROSS MANITOBA...SASKATCHEWAN AND ONTARIO ***
                ***ONTARIO***

CITY           SKY/WX    TMP DP  RH WIND       PRES   REMARKS
GERALDTON      CLOUDY    12   7  79 SW3       29.94S
THUNDER BAY    FLURRIES  23  19  86 N2        29.97R
SIOUX LOOKOUT  PTCLDY    16  10  79 NW8       29.91R WCI   5
TORONTO        PTCLDY    39  21  48 VRB2      30.25S
BIG TROUT LK   CLEAR     -9 -13  84 NW5       29.94R WCI -21
PICKLE LAKE    NOT AVBL
DRYDEN         FLURRIES  16  12  86 N5        29.92R WCI   9
KENORA         FLURRIES  12   5  73 N8        29.93R WCI   1
$$
                *** MANITOBA***

CITY           SKY/WX    TMP DP  RH WIND       PRES   REMARKS
BRANDON        PTCLDY    -6 -13  71 N3        29.95S
DAUPHIN        CLEAR      3  -4  72 SW8       29.97R WCI -10
ISLAND LAKE    CLEAR    -15 -20  76 SE2       29.97R
PILOT MOUND      N/A      7   5  92 E3          N/A
THE PAS        PTCLDY     3  -4  72 SE10      29.91R WCI -12
THOMPSON       CRYSTALS -27 -35  68 CALM      29.96R
WINNIPEG       PTCLDY     7   1  78 NE3       30.01R
LYNN LAKE      CLEAR    -24 -27  83 W3        29.88S
CHURCHILL      CRYSTALS -22 -29  69 NW14G20   29.95S WCI -47
GILLAM         CLEAR    -20 -27  69 W8        29.98R WCI -39
$$
                ***SASKATCHEWAN***

CITY           SKY/WX    TMP DP  RH WIND       PRES   REMARKS
ESTEVAN        CLEAR      1  -2  85 E8        29.87S WCI -12
KINDERSLEY     PTCLDY    10   3  72 E8        29.72R WCI  -1
LLOYDMINSTER   PTCLDY     9   3  78 SW7       29.70R WCI  -3
PRINCE ALBERT  CLEAR      9   1  72 SW6       29.80R WCI  -1
REGINA         CLEAR      5  -2  72 SE12      29.84S WCI -11
YORKTON        CLEAR      1  -4  78 S8        29.89S WCI -12
N. BATTLEFORD  CLEAR      7   0  72 S6        29.78R WCI  -3
LA RONGE       CLEAR    -17 -20  83 CALM      29.85S
SASKATOON      MOCLDY     7   0  72 S8        29.81R WCI  -6
SWIFT CURRENT  CLOUDY    12   7  79 SE10      29.69S WCI  -1
$$
NOTE: THESE ARE AUTOMATED STATIONS WITH LIMITED QUALITY CONTROL
      "FAIR" INDICATES FEW OR NO CLOUDS BELOW 12,000 FEET WITH NO
      SIGNIFICANT WEATHER AND/OR OBSTRUCTIONS TO VISIBILITY.
      SKY/WX - SKY CONDITION AND SIGNIFICANT WEATHER.
      TMP - AIR TEMPERATURE.    DP   - DEWPOINT TEMPERATURE.
      RH  - RELATIVE HUMIDITY.  PRES - PRESSURE.
      HX  - HEAT INDEX.         WCI  - WIND CHILL INDEX.
$



USA.gov is the U.S. government's official web portal to all federal, state and local government web resources and services.